Wind_Speed
14 14 13 12 11 10 10 9 9 9 10 10 11 12 13 12 15 14 15 18 22 25 26 26 27 27 28 28 29 29 29 31 30 25 19 20 20 17 11 12 15 15 16
9 12 13 13 12 10 10 9 9 9 11 10 9 12 13 13 14 14 14 17 20 24 26 27 28 28 28 29 30 29 32 35 32 29 23 20 17 16 12 11 12 16 11
5 9 10 13 12 11 11 10 10 10 11 12 11 11 12 12 13 14 13 16 18 22 26 28 28 28 28 29 29 30 34 33 30 29 26 21 17 13 11 11 11 12 10
10 9 8 11 11 9 10 11 10 11 12 13 13 12 12 13 14 15 13 14 15 19 23 27 28 28 28 30 30 31 33 34 31 31 28 22 17 13 10 9 10 9 8
16 13 8 7 8 9 9 9 9 8 8 11 13 14 14 13 14 16 13 13 14 17 20 25 27 28 28 29 30 30 31 31 31 30 27 22 17 13 10 9 12 9 8
22 20 15 10 9 8 7 7 8 6 8 10 10 12 15 16 15 17 13 13 13 16 18 22 26 28 27 27 29 30 30 30 29 31 29 23 18 16 14 13 11 8 8
26 26 24 16 14 13 10 11 14 14 15 16 15 15 15 16 15 17 15 13 13 15 18 20 23 26 25 24 27 27 29 30 29 32 30 26 20 17 16 14 10 9 10
29 31 28 25 20 17 16 17 19 19 21 22 22 21 19 20 18 15 15 12 12 14 17 18 21 23 24 23 23 25 27 29 29 31 30 27 24 19 19 17 13 10 11
32 31 31 28 29 25 22 20 19 19 18 18 18 20 20 22 20 16 14 13 13 13 16 17 19 21 23 21 21 23 24 27 28 30 30 27 27 23 21 18 13 15 11
21 27 26 25 27 26 23 21 20 17 17 16 16 16 18 19 17 16 15 14 13 12 14 15 17 18 20 20 20 21 21 25 24 26 28 27 27 26 20 19 14 12 10
16 17 18 19 20 21 23 21 18 18 16 16 16 15 15 15 14 16 15 14 13 13 14 13 14 15 16 17 17 18 19 20 21 22 27 29 28 25 22 20 18 15 12
18 17 17 16 17 15 14 16 16 16 17 18 16 13 13 11 12 14 16 15 11 12 13 13 13 14 14 14 14 15 16 16 17 20 25 29 26 23 24 19 18 17 14
14 14 16 17 18 15 13 14 15 16 18 18 16 13 13 9 8 11 14 13 10 12 11 11 11 14 12 10 10 12 14 14 15 18 21 25 24 20 21 21 16 14 14
17 17 19 17 17 17 16 17 19 22 22 20 20 18 19 11 10 11 14 13 10 9 11 12 12 12 13 10 8 8 10 11 12 13 17 20 21 17 18 19 21 15 14
17 19 19 22 22 20 19 19 20 21 21 23 23 22 21 19 17 16 16 16 14 14 12 11 8 11 14 10 12 8 8 7 7 9 11 14 15 16 17 16 17 17 14
18 19 20 22 18 19 20 20 20 21 22 23 24 26 28 29 29 24 21 21 20 19 18 19 16 14 14 15 13 9 7 6 3 5 6 6 11 13 16 17 16 15 13
20 20 22 21 21 20 23 24 22 17 18 20 24 28 32 35 37 37 33 29 25 23 20 17 15 17 17 17 15 6 6 6 5 1 2 2 6 8 11 13 15 17 15
23 21 20 19 19 19 20 19 16 12 11 14 17 23 25 30 33 33 36 35 29 24 20 17 17 18 23 23 18 7 2 6 7 5 1 3 3 5 5 6 9 12 14
17 19 22 20 18 19 17 15 14 14 13 14 17 21 21 15 12 13 20 27 26 20 19 16 20 20 18 22 22 23 19 18 15 9 6 3 5 5 3 2 6 8 9
14 16 16 17 17 16 17 16 15 16 16 13 14 14 9 11 1 5 3 7 9 10 11 15 18 20 20 14 21 21 25 24 22 13 10 7 7 6 7 3 2 5 8
16 15 12 13 14 14 12 10 11 12 15 14 13 9 6 5 3 2 3 8 12 12 12 16 16 15 18 17 21 21 17 16 19 15 12 10 8 8 7 9 5 4 6
17 14 10 9 10 13 14 13 11 11 12 15 17 16 15 12 9 9 7 9 10 12 10 12 14 10 15 24 22 16 16 16 12 13 11 9 10 10 10 8 7 7 6
23 20 14 8 9 11 10 11 11 12 12 12 13 15 16 14 9 9 11 12 14 14 13 15 11 10 18 17 18 22 18 23 14 14 13 6 11 14 11 11 10 10 8
10 9 16 15 8 9 8 9 12 14 14 12 12 12 12 11 11 12 12 17 20 21 20 19 17 17 21 23 18 22 24 27 24 20 19 22 19 16 15 14 12 12 13
1 6 9 12 11 9 8 6 11 14 15 15 14 14 13 12 14 16 18 21 22 19 17 16 16 15 17 15 21 24 22 27 29 26 29 25 25 16 17 16 14 13 15
5 7 10 11 11 10 5 7 8 9 10 14 15 15 14 13 13 14 12 12 10 9 9 9 8 6 8 10 11 14 16 28 24 30 33 34 31 20 20 20 18 17 17
Wind_Direction
218 220 221 224 232 238 245 241 249 257 265 274 284 293 305 315 321 337 346 344 358 351 358 2 2 3 1 2 1 354 354 350 357 350 347 338 337 338 342 351 345 345 345
223 234 228 228 226 234 242 248 252 259 270 274 277 289 299 306 309 317 333 336 348 348 354 359 358 3 3 2 0 354 355 357 2 0 354 347 346 355 10 7 9 356 26
255 248 231 227 228 228 243 248 253 260 268 278 282 285 293 302 306 311 323 325 340 342 349 354 357 359 3 3 1 357 357 2 4 5 358 2 2 8 15 23 13 12 24
305 262 242 228 229 226 234 248 254 261 270 278 283 285 289 297 304 308 319 321 331 337 343 350 354 355 2 2 3 360 359 3 8 8 3 8 11 15 15 30 37 39 52
266 270 249 238 219 220 222 237 253 273 285 291 295 296 294 294 298 304 317 319 325 333 339 343 349 353 360 2 3 1 2 3 10 10 9 17 24 22 17 24 35 51 53
232 254 240 225 221 223 229 249 255 274 288 292 301 315 309 293 293 297 306 313 324 329 334 337 343 350 0 360 3 4 0 7 9 11 13 22 33 36 34 33 46 55 67
229 242 256 239 240 244 248 264 277 284 282 283 288 297 308 309 289 289 299 313 322 323 323 333 338 345 1 1 2 3 3 6 11 12 15 22 30 35 35 32 29 48 92
244 255 265 263 251 258 269 278 281 284 285 283 282 284 292 298 299 279 288 301 308 313 316 326 332 340 354 3 358 2 5 7 12 13 18 24 33 35 38 28 32 62 106
243 249 255 269 269 268 274 281 279 280 284 287 286 285 282 291 297 271 276 286 295 301 310 320 325 337 345 358 356 2 4 8 13 13 20 28 33 35 36 40 42 55 108
232 238 247 254 261 269 272 275 276 273 272 279 291 295 291 290 289 273 270 280 291 296 303 310 317 329 339 348 355 357 7 8 14 13 22 32 34 35 39 41 51 58 74
234 235 243 253 260 264 264 266 265 266 263 277 293 298 292 283 276 273 276 279 287 290 295 299 306 319 335 341 348 354 5 11 10 12 25 30 27 35 36 44 48 58 76
248 237 242 246 255 261 262 258 253 257 266 274 287 289 294 280 264 267 271 279 283 284 283 290 296 308 329 338 341 347 357 14 8 15 26 32 27 28 41 49 53 52 56
259 254 250 251 246 244 245 250 258 265 266 262 274 273 280 277 265 266 272 277 282 278 272 276 282 292 311 326 335 341 348 7 12 15 28 31 30 28 45 45 50 57 57
244 251 257 253 249 250 248 254 263 271 267 259 262 264 266 262 254 265 272 266 266 266 275 265 267 282 303 312 327 332 338 359 11 13 28 33 30 32 48 48 49 60 63
245 243 250 249 249 250 254 257 259 262 262 260 263 264 266 263 263 267 260 260 267 269 268 272 279 296 296 303 311 315 317 346 9 12 35 35 34 39 45 50 53 58 61
247 247 240 244 245 262 258 256 257 255 257 257 257 260 265 268 273 263 266 263 263 265 266 269 277 270 284 286 297 299 288 305 342 23 48 35 48 50 53 51 54 56 56
253 244 241 244 247 250 258 254 251 254 257 262 264 264 266 267 268 266 266 256 255 268 274 269 275 276 276 264 278 282 284 293 291 273 95 101 65 58 61 54 46 59 58
238 239 241 239 240 240 239 241 247 247 253 270 276 279 287 280 269 261 250 244 246 259 267 261 255 270 277 262 243 226 252 322 290 261 201 158 137 88 65 56 49 51 60
224 227 230 232 230 230 230 230 242 249 251 269 283 303 308 310 289 256 241 235 240 242 256 268 265 266 269 249 224 242 254 268 289 280 249 225 190 141 106 52 69 67 65
232 226 221 224 228 234 241 244 248 255 259 269 292 322 344 8 234 151 172 208 212 240 258 247 256 265 265 259 231 247 252 247 253 270 242 228 237 194 150 182 136 102 90
242 236 229 235 233 229 228 233 241 246 254 256 267 298 350 357 29 55 308 273 262 257 267 265 263 259 266 240 237 252 277 227 232 241 235 226 232 242 214 169 202 187 130
226 230 234 249 258 246 242 243 247 252 256 254 257 268 286 290 288 287 284 295 280 272 277 268 279 260 229 227 228 247 229 214 226 217 232 221 233 239 235 219 192 234 172
228 235 242 266 271 253 245 252 247 248 254 258 268 274 282 286 275 286 285 281 286 282 269 263 264 233 226 218 231 231 247 225 221 229 230 238 237 241 237 240 212 227 239
190 226 246 239 264 272 260 255 251 245 243 245 250 257 265 265 261 263 268 273 273 273 271 268 263 249 233 247 245 233 235 233 235 237 247 243 250 242 232 233 230 227 245
156 185 201 215 224 258 253 248 252 242 238 236 238 240 241 248 255 262 266 269 267 268 270 272 271 257 243 252 234 229 237 244 233 237 230 240 229 232 238 229 233 228 234
220 213 205 193 199 222 223 222 237 248 243 233 234 238 242 247 251 254 256 257 266 272 267 258 258 257 243 241 225 239 254 248 241 246 247 232 219 227 236 229 228 231 233
Height
3193 3196 3197 3198 3200 3203 3206 3207 3207 3208 3209 3210 3210 3210 3211 3211 3209 3209 3207 3203 3201 3197 3194 3189 3184 3179 3174 3170 3163 3156 3150 3144 3139 3131 3124 3120 3115 3113 3112 3111 3106 3103 3101
3191 3193 3195 3196 3197 3200 3202 3204 3205 3206 3206 3207 3208 3207 3208 3208 3207 3206 3205 3203 3201 3197 3193 3188 3184 3179 3174 3169 3162 3155 3148 3142 3136 3130 3123 3118 3115 3111 3110 3109 3106 3101 3100
3191 3194 3194 3193 3194 3196 3199 3201 3202 3203 3203 3203 3204 3205 3204 3204 3204 3203 3203 3200 3198 3195 3192 3188 3184 3178 3174 3169 3163 3155 3148 3141 3135 3130 3122 3117 3113 3110 3109 3108 3105 3102 3101
3192 3193 3194 3193 3193 3193 3196 3199 3200 3200 3201 3201 3202 3202 3202 3201 3201 3200 3200 3199 3197 3193 3191 3187 3183 3178 3174 3168 3162 3155 3148 3141 3137 3130 3123 3117 3112 3110 3110 3108 3106 3104 3102
3188 3192 3193 3193 3191 3191 3193 3196 3197 3197 3198 3199 3199 3198 3198 3198 3198 3198 3197 3196 3195 3191 3189 3186 3182 3178 3174 3169 3163 3157 3150 3143 3138 3132 3126 3118 3113 3110 3110 3109 3107 3105 3103
3183 3187 3191 3190 3190 3191 3191 3194 3195 3196 3196 3196 3196 3196 3195 3193 3194 3194 3195 3194 3192 3190 3187 3185 3181 3177 3174 3169 3163 3159 3153 3146 3140 3134 3127 3120 3116 3114 3112 3110 3108 3107 3106
3176 3180 3183 3186 3186 3188 3189 3191 3193 3193 3192 3193 3193 3193 3192 3190 3190 3190 3191 3190 3189 3188 3185 3183 3179 3177 3174 3170 3164 3160 3154 3148 3141 3135 3128 3123 3117 3115 3114 3114 3111 3110 3109
3175 3173 3176 3178 3182 3185 3186 3186 3188 3188 3187 3188 3188 3189 3189 3187 3186 3185 3186 3187 3186 3185 3183 3182 3178 3175 3173 3170 3165 3159 3154 3149 3142 3138 3131 3126 3120 3117 3115 3116 3114 3112 3112
3168 3168 3171 3169 3174 3179 3180 3181 3182 3182 3182 3182 3182 3183 3184 3182 3181 3180 3182 3183 3183 3182 3181 3179 3176 3174 3172 3169 3166 3160 3155 3150 3145 3140 3134 3129 3123 3119 3118 3119 3118 3115 3115
3162 3164 3165 3166 3168 3172 3174 3175 3177 3177 3176 3177 3177 3178 3178 3177 3177 3176 3177 3179 3179 3178 3177 3177 3174 3172 3170 3167 3164 3161 3157 3152 3147 3143 3138 3133 3128 3123 3120 3120 3120 3120 3118
3157 3159 3161 3163 3165 3167 3168 3169 3170 3171 3172 3172 3172 3173 3173 3173 3174 3173 3173 3175 3176 3175 3174 3173 3171 3170 3169 3166 3163 3161 3159 3154 3150 3146 3141 3135 3132 3129 3126 3122 3122 3123 3122
3153 3154 3156 3159 3160 3161 3162 3164 3164 3166 3167 3167 3168 3169 3169 3169 3170 3170 3170 3171 3172 3171 3171 3170 3169 3167 3166 3164 3162 3160 3159 3156 3153 3148 3143 3138 3136 3134 3130 3128 3126 3127 3126
3150 3152 3153 3154 3155 3156 3158 3160 3159 3160 3162 3162 3163 3164 3165 3166 3167 3166 3166 3167 3168 3168 3167 3166 3165 3164 3164 3162 3160 3158 3158 3157 3154 3150 3146 3142 3140 3139 3135 3132 3130 3130 3130
3146 3148 3150 3149 3150 3150 3152 3153 3153 3154 3156 3157 3158 3158 3159 3162 3163 3163 3163 3162 3164 3163 3162 3163 3163 3162 3161 3160 3158 3157 3156 3156 3154 3152 3148 3145 3144 3143 3139 3137 3134 3133 3133
3142 3143 3144 3144 3145 3147 3146 3147 3147 3148 3150 3152 3153 3154 3155 3156 3159 3159 3158 3158 3159 3159 3159 3159 3159 3159 3159 3158 3156 3155 3154 3155 3154 3153 3150 3148 3148 3145 3143 3141 3139 3137 3137
3133 3135 3137 3139 3139 3140 3141 3141 3142 3143 3144 3145 3147 3148 3149 3149 3150 3153 3152 3153 3154 3154 3155 3155 3155 3154 3156 3156 3155 3154 3153 3152 3153 3152 3151 3151 3149 3149 3147 3145 3143 3141 3141
3128 3129 3131 3132 3133 3134 3136 3136 3136 3138 3139 3139 3140 3142 3143 3142 3140 3142 3144 3145 3146 3148 3149 3150 3150 3151 3152 3153 3153 3151 3151 3150 3151 3151 3151 3151 3150 3150 3149 3149 3148 3145 3144
3123 3125 3126 3127 3128 3129 3130 3131 3132 3134 3134 3135 3136 3136 3134 3130 3129 3128 3131 3134 3137 3140 3142 3143 3144 3145 3146 3147 3148 3148 3149 3150 3150 3150 3150 3150 3151 3149 3151 3151 3150 3149 3147
3118 3119 3122 3123 3124 3125 3126 3127 3128 3129 3131 3132 3131 3130 3126 3123 3120 3120 3121 3125 3130 3133 3136 3136 3138 3140 3140 3138 3140 3142 3146 3146 3147 3148 3148 3149 3149 3150 3150 3152 3152 3151 3150
3114 3115 3117 3118 3119 3121 3122 3123 3124 3125 3126 3127 3127 3126 3123 3120 3120 3119 3120 3122 3125 3128 3129 3130 3133 3134 3134 3132 3135 3138 3140 3141 3144 3145 3146 3147 3147 3149 3150 3152 3152 3153 3152
3110 3111 3112 3114 3116 3117 3117 3118 3119 3120 3121 3122 3123 3123 3122 3120 3119 3119 3120 3121 3122 3123 3125 3125 3125 3125 3126 3128 3130 3132 3133 3134 3140 3142 3144 3145 3146 3146 3148 3150 3151 3152 3153
3106 3107 3109 3110 3111 3112 3113 3114 3115 3115 3116 3117 3118 3118 3119 3119 3118 3117 3118 3118 3118 3119 3119 3119 3119 3120 3121 3122 3124 3127 3130 3134 3136 3138 3140 3142 3143 3146 3146 3147 3148 3151 3153
3101 3102 3104 3105 3106 3107 3108 3109 3110 3110 3111 3111 3112 3112 3112 3113 3113 3114 3114 3113 3113 3113 3113 3115 3115 3117 3118 3119 3120 3122 3126 3130 3132 3134 3137 3137 3140 3143 3144 3145 3146 3148 3151
3093 3096 3099 3101 3102 3103 3103 3103 3104 3105 3106 3107 3107 3108 3108 3109 3109 3109 3109 3109 3108 3108 3108 3109 3111 3112 3113 3114 3115 3118 3121 3123 3127 3128 3131 3132 3136 3139 3140 3142 3144 3144 3145
3088 3091 3094 3096 3098 3100 3101 3099 3100 3100 3101 3102 3103 3104 3104 3105 3105 3104 3104 3104 3104 3104 3104 3104 3104 3105 3108 3108 3109 3111 3114 3116 3120 3122 3123 3126 3131 3134 3136 3138 3140 3142 3142
3088 3090 3093 3093 3096 3097 3097 3096 3098 3098 3097 3097 3099 3100 3100 3101 3101 3102 3101 3100 3100 3100 3100 3101 3101 3101 3102 3103 3104 3106 3107 3108 3112 3114 3115 3116 3120 3127 3131 3133 3135 3137 3139